Preview of NWS' New Version of Forecast
This preview is not operational and should not be used for support decisions.

Regional Weather Roundup (RWR)

Issued by National Weather Service (NWS)

                            
000
ASUS44 KMEG 180200
RWRTN 
TENNESSEE HOURLY STATE WEATHER ROUNDUP
NATIONAL WEATHER SERVICE MEMPHIS TN
900 PM CDT SUN MAR 17 2019

TNZ002-004-019-021-049-052-054-088>092-180300-
WEST TENNESSEE
  
CITY           SKY/WX    TMP DP  RH WIND       PRES   REMARKS
MEMPHIS INTL   FAIR      56  30  37 NE3       30.26R                  
NWS MEMPHIS      N/A     49 N/A N/A MISG        N/A                   
JACKSON        FAIR      46  31  55 CALM      30.27S                  
DYERSBURG      FAIR      50  30  46 NE5       30.28R                  
$$

TNZ008-025-027-028-033-062-065-066-180300-
NORTH MIDDLE TENNESSEE
  
CITY           SKY/WX    TMP DP  RH WIND       PRES   REMARKS
NASHVILLE      FAIR      52  21  29 N8        30.25R                  
CLARKSVILLE    FAIR      44  26  49 N8        30.28R                  
SMYRNA         FAIR      45  27  49 NW9       30.25R                  
CROSSVILLE     FAIR      46  22  38 NW5       30.21R                  
$$

TNZ061-075-076-078-094-096-097-180300-
SOUTH MIDDLE TENNESSEE
  
CITY           SKY/WX    TMP DP  RH WIND       PRES   REMARKS
FAYETTEVILLE   CLEAR     54  23  30 NW8       30.21R                  
$$

TNZ017-018-042-046-047-180300-
NORTHEAST TENNESSEE
  
CITY           SKY/WX    TMP DP  RH WIND       PRES   REMARKS
TRI CITIES     FAIR      44  24  45 SW3       30.16R                  
$$

TNZ012-013-036-069-073-074-180300-
CENTRAL EAST TENNESSEE
  
CITY           SKY/WX    TMP DP  RH WIND       PRES   REMARKS
KNOXVILLE      FAIR      52  22  30 W8        30.18R                  
OAK RIDGE      FAIR      50  23  34 CALM      30.20R                  
$$

TNZ083-085-099-180300-
SOUTHEAST TENNESSEE
  
CITY           SKY/WX    TMP DP  RH WIND       PRES   REMARKS
CHATTANOOGA    FAIR      50  30  46 CALM      30.20R                  
$$

SKY/WX REPORTED AS FAIR MEANS FEW OR NO CLOUDS BELOW
12 THOUSAND FEET.